Date,TemperatureHighF,TemperatureAvgF,TemperatureLowF,DewpointHighF,DewpointAvgF,DewpointLowF,HumidityHigh,HumidityAvg,HumidityLow,PressureMaxIn,PressureMinIn,WindSpeedMaxMPH,WindSpeedAvgMPH,GustSpeedMaxMPH,PrecipitationSumIn
2013-1-11,48,42,36,38,34,33,86,73,60,0.00,40.00,6,3,0,0.00
2013-1-12,50,37,28,35,19,-100,96,75,28,0.00,40.00,8,3,0,0.00
2013-1-13,50,35,25,35,30,23,95,84,50,0.00,40.00,6,3,0,0.00
2013-1-14,51,36,26,35,30,24,95,82,47,0.00,40.00,9,3,0,0.00
2013-1-15,55,38,28,38,33,27,96,83,42,0.00,40.00,10,3,0,0.00
2013-1-16,58,40,29,40,34,28,96,82,49,0.00,40.00,20,5,0,0.00
2013-1-17,62,42,30,45,37,29,96,83,42,0.00,40.00,28,5,0,0.00
2013-1-18,68,42,29,45,36,28,96,81,29,0.00,40.00,17,5,0,0.00
2013-1-19,68,44,29,40,34,28,95,72,24,0.00,40.00,5,4,0,0.00
2013-1-20,69,45,30,39,33,28,93,70,27,0.00,40.00,6,4,0,0.00
2013-1-21,69,45,29,41,34,28,95,69,26,0.00,40.00,7,3,0,0.00
2013-1-22,65,48,33,39,34,28,92,60,26,0.00,40.00,12,4,0,0.00
2013-1-23,55,51,47,46,39,30,94,68,38,0.00,40.00,21,5,0,0.00
2013-1-24,57,51,47,52,49,45,94,91,81,0.00,40.00,4,2,0,0.00
2013-1-25,59,53,50,52,50,49,94,90,72,0.00,40.00,4,2,0,0.00
2013-1-26,53,48,39,48,40,35,94,76,53,0.00,40.00,11,4,0,0.00
2013-1-27,51,44,39,37,33,27,87,66,39,0.00,40.00,13,4,0,0.00
2013-1-28,53,45,38,37,36,34,85,69,52,0.00,40.00,10,4,0,0.00
2013-1-29,58,47,42,42,39,35,92,72,51,0.00,40.00,10,4,0,0.00
2013-1-30,69,47,34,46,40,33,95,80,39,0.00,40.00,8,3,0,0.00
2013-1-31,68,50,33,46,39,32,95,71,38,0.00,40.00,5,3,0,0.00
2013-2-1,69,48,33,47,39,32,95,76,31,0.00,40.00,8,4,0,0.00
2013-2-2,55,44,38,47,41,37,95,90,73,0.00,40.00,9,2,0,0.00
2013-2-3,58,49,41,46,43,40,94,82,61,0.00,40.00,8,3,0,0.00
2013-2-4,61,45,36,46,41,35,95,87,56,0.00,40.00,14,4,0,0.00
2013-2-5,53,46,42,46,42,39,94,85,71,0.00,40.00,6,2,0,0.00
2013-2-6,56,42,32,42,37,31,96,83,54,0.00,40.00,5,2,0,0.00
2013-2-7,49,43,38,42,38,35,95,85,60,0.00,40.00,6,2,0,0.00
2013-2-8,52,49,40,39,34,28,94,60,39,0.00,40.00,6,4,0,0.00
2013-2-9,57,40,28,35,30,24,96,73,35,0.00,40.00,4,2,0,0.00
2013-2-10,58,42,30,36,32,28,95,73,33,0.00,40.00,5,3,0,0.00
2013-2-11,56,39,30,40,34,29,95,85,47,0.00,40.00,5,3,0,0.00
2013-2-12,60,44,33,41,36,32,95,77,47,0.00,40.00,6,3,0,0.00
2013-2-13,64,46,31,46,38,30,95,78,41,0.00,40.00,5,3,0,0.00
2013-2-14,72,50,36,47,42,35,95,76,35,0.00,40.00,6,3,0,0.00
2013-2-15,74,54,38,44,39,33,94,63,25,0.00,40.00,7,3,0,0.00
2013-2-16,71,50,38,45,40,35,94,72,32,0.00,40.00,5,4,0,0.00
2013-2-17,63,45,32,44,37,31,95,76,42,0.00,40.00,38,4,0,0.00
2013-2-18,54,41,32,41,36,31,95,82,55,0.00,40.00,30,4,0,0.00
2013-2-19,45,41,37,39,35,29,94,78,53,0.00,40.00,13,3,0,0.00
2013-2-20,53,41,29,35,31,28,94,69,39,0.00,40.00,10,4,0,0.00
2013-2-21,58,48,41,36,34,26,75,60,30,0.00,40.00,13,3,0,0.00
2013-2-22,62,47,34,42,37,32,91,70,39,0.00,40.00,5,2,0,0.00
2013-2-23,53,46,38,43,33,27,93,62,37,0.00,40.00,11,4,0,0.00
2013-2-24,62,45,30,41,34,27,95,70,29,0.00,40.00,5,2,0,0.00
2013-2-25,63,48,36,37,32,22,92,62,20,0.00,40.00,14,3,0,0.00
2013-2-26,64,44,30,38,33,27,94,68,31,0.00,40.00,5,3,0,0.00
2013-2-27,66,49,32,44,36,29,93,65,31,0.00,40.00,11,3,0,0.00
2013-2-28,67,54,44,51,47,42,94,79,53,0.00,40.00,4,2,0,0.00
2013-3-1,71,53,39,49,44,37,95,75,37,0.00,40.00,16,3,0,0.00
2013-3-2,67,52,43,49,45,41,94,79,46,0.00,40.00,6,3,0,0.00
2013-3-4,56,46,38,44,40,37,95,81,63,0.00,40.00,6,2,0,0.00
2013-3-5,49,44,39,44,40,37,94,86,73,0.00,40.00,32,9,0,0.00
2013-3-6,51,46,37,44,40,35,94,78,59,0.00,40.00,23,8,0,0.00
2013-3-7,51,42,34,42,37,33,95,83,50,0.00,40.00,25,4,0,0.00
2013-3-8,58,44,32,42,37,31,95,79,49,0.00,40.00,8,3,0,0.00
2013-3-9,68,48,34,42,37,32,94,70,27,0.00,40.00,5,3,0,0.00
2013-3-10,68,49,35,41,26,-100,94,67,24,0.00,40.00,7,4,0,0.00
2013-3-11,71,50,37,48,41,35,94,73,38,0.00,40.00,7,3,0,0.00
2013-3-12,71,54,39,49,44,37,94,72,39,0.00,40.00,6,3,0,0.00
2013-3-13,77,56,41,51,46,40,94,72,32,0.00,40.00,5,3,0,0.00
2013-3-14,69,53,45,50,36,-100,94,77,24,0.00,40.00,5,2,0,0.00
2013-3-15,71,56,41,48,43,39,93,66,45,0.00,40.00,11,4,0,0.00
2013-3-16,70,55,41,45,28,-100,94,60,18,0.00,40.00,11,4,0,0.00
2013-3-17,66,53,41,40,27,-100,89,57,22,0.00,40.00,8,3,0,0.00
2013-3-18,67,51,36,43,38,34,93,64,36,0.00,40.00,5,3,0,0.00
2013-3-19,55,48,41,48,38,-100,92,70,35,0.00,40.00,6,3,0,0.00
2013-3-20,55,49,45,52,47,42,94,91,85,0.00,40.00,17,4,0,0.00
2013-3-21,62,48,36,42,33,-100,95,69,38,0.00,40.00,6,3,0,0.00
2013-3-22,62,48,35,37,15,-100,94,58,25,0.00,40.00,5,2,0,0.00
2013-3-23,66,49,33,40,36,32,95,65,33,0.00,40.00,8,2,0,0.00
2013-3-24,69,51,37,45,39,35,92,68,38,0.00,40.00,5,3,0,0.00
2013-3-25,47,41,37,43,39,35,95,92,83,0.00,40.00,5,2,0,0.00
2013-3-26,62,52,42,47,42,40,94,70,50,0.00,40.00,5,2,0,0.00
2013-3-27,58,49,44,50,46,41,94,87,71,0.00,40.00,37,4,0,0.00
2013-3-28,61,52,48,50,48,46,94,84,64,0.00,40.00,7,3,0,0.00
2013-3-29,72,56,44,52,44,-100,94,75,35,0.00,40.00,11,3,0,0.00
2013-3-30,67,55,49,50,47,-100,93,79,43,0.00,40.00,8,3,0,0.00
2013-3-31,56,53,51,51,50,48,94,88,75,0.00,40.00,15,4,0,0.00
2013-4-1,62,53,47,51,48,45,94,82,61,0.00,40.00,10,4,0,0.00
2013-4-2,53,47,44,49,45,43,94,92,81,0.00,40.00,39,6,0,0.00
2013-4-3,72,53,42,51,45,41,95,78,42,0.00,40.00,16,6,0,0.00
2013-4-4,56,54,52,52,51,50,93,90,86,0.00,40.00,11,5,0,0.00
2013-4-5,59,53,50,51,49,47,94,87,71,0.00,40.00,6,2,0,0.00
2013-4-6,65,55,50,54,49,46,94,81,59,0.00,40.00,4,2,0,0.00
2013-4-7,58,52,47,51,47,42,94,84,65,0.00,40.00,32,4,0,0.00
2013-4-8,61,51,44,41,30,-100,87,56,35,0.00,40.00,14,6,0,0.00
2013-4-9,72,53,38,44,37,-100,95,63,25,0.00,40.00,7,3,0,0.00
2013-4-10,79,59,44,52,40,-100,93,65,26,0.00,40.00,6,3,0,0.00
2013-4-11,69,57,46,47,34,-100,81,56,30,0.00,40.00,8,3,0,0.00
2013-4-12,75,52,39,47,41,37,94,70,31,0.00,40.00,4,2,0,0.00
2013-4-13,66,56,48,40,33,-100,69,49,31,0.00,40.00,15,4,0,0.00
2013-4-14,64,51,44,43,20,-100,92,52,23,0.00,40.00,13,3,0,0.00
2013-4-15,45,43,42,43,38,33,92,81,72,0.00,40.00,6,4,0,0.00
2013-4-16,62,50,36,35,15,-100,81,51,26,0.00,40.00,8,4,0,0.00
2013-4-17,67,51,36,38,24,-100,93,57,23,0.00,40.00,6,2,0,0.00
2013-4-18,74,55,39,41,30,-100,90,60,26,0.00,40.00,8,3,0,0.00
2013-4-19,77,61,43,47,29,-100,92,54,24,0.00,40.00,13,5,0,0.00
2013-4-20,79,61,48,45,38,-100,70,46,22,0.00,40.00,5,3,0,0.00
2013-4-21,83,58,44,48,43,37,90,63,20,0.00,40.00,5,2,0,0.00
2013-4-22,85,65,49,49,42,-100,87,54,19,0.00,40.00,8,3,0,0.00
2013-4-23,77,61,49,46,21,-100,77,45,15,0.00,40.00,5,3,0,0.00
2013-4-24,68,52,39,46,41,36,90,67,45,0.00,40.00,7,2,0,0.00
2013-4-25,64,52,45,47,44,42,89,76,49,0.00,40.00,5,2,0,0.00
2013-4-26,69,53,45,49,46,44,93,78,48,0.00,40.00,6,2,0,0.00
2013-4-27,76,53,42,53,45,41,94,78,39,0.00,40.00,13,4,0,0.00
2013-4-28,87,61,45,48,45,40,91,62,23,0.00,40.00,4,2,0,0.00
2013-4-29,82,62,50,49,46,40,88,60,23,0.00,40.00,9,3,0,0.00
2013-4-30,79,65,50,42,20,-100,71,35,16,0.00,40.00,7,4,0,0.00
2013-5-1,85,69,54,33,-3,-100,38,20,7,0.00,40.00,9,3,0,0.00
2013-5-2,88,65,45,39,19,-100,65,34,10,0.00,40.00,4,2,0,0.00
2013-5-3,91,61,44,41,36,26,72,45,12,0.00,40.00,7,3,0,0.00
2013-5-4,88,65,51,47,23,-100,77,43,13,0.00,40.00,12,5,0,0.00
2013-5-5,53,52,52,46,46,46,81,79,77,0.00,40.00,7,5,0,0.00
2013-5-6,65,61,53,49,45,44,77,56,46,0.00,40.00,13,4,0,0.00
2013-5-7,69,56,47,49,47,44,92,73,43,0.00,40.00,6,2,0,0.00
2013-5-8,64,54,48,50,48,46,94,80,57,0.00,40.00,5,2,0,0.00
2013-5-9,69,56,45,51,48,44,94,75,51,0.00,40.00,6,3,0,0.00
2013-5-10,79,55,44,53,47,43,94,78,40,0.00,40.00,6,2,0,0.00
2013-5-11,82,64,48,57,48,-100,93,63,35,0.00,40.00,6,3,0,0.00
2013-5-12,81,60,49,58,44,-100,94,73,29,0.00,40.00,6,2,0,0.00
2013-5-13,81,65,48,52,46,42,86,54,29,0.00,40.00,10,2,0,0.00
2013-5-14,82,66,51,45,41,35,77,43,19,0.00,40.00,7,3,0,0.00
2013-5-15,72,59,47,46,40,34,68,50,33,0.00,40.00,6,3,0,0.00
2013-5-16,68,54,51,50,26,-100,78,66,42,0.00,40.00,7,2,0,0.00
2013-5-17,67,54,42,46,38,-100,93,67,42,0.00,40.00,12,2,0,0.00
2013-5-18,73,58,41,47,42,36,93,60,31,0.00,40.00,11,4,0,0.00
2013-5-19,55,49,44,42,42,40,86,74,60,0.00,40.00,3,2,0,0.00
2013-5-20,85,77,59,43,41,37,52,28,18,0.00,40.00,6,3,0,0.00
2013-5-21,66,58,48,44,38,27,68,49,27,0.00,40.00,17,7,0,0.00
2013-5-22,61,52,45,38,30,-100,66,47,28,0.00,40.00,9,5,0,0.00
2013-5-23,67,54,44,41,37,33,72,54,30,0.00,40.00,6,3,0,0.00
2013-5-24,70,57,38,42,39,35,92,54,29,0.00,40.00,7,3,0,0.00
2013-5-25,72,56,44,46,37,-100,79,57,31,0.00,40.00,7,2,0,0.00
2013-5-26,69,58,51,48,46,44,91,66,43,0.00,40.00,11,3,0,0.00
2013-5-27,57,52,46,53,47,42,93,84,76,0.00,40.00,12,2,0,0.00
2013-5-28,67,58,54,54,52,49,93,80,58,0.00,40.00,7,2,0,0.00
2013-5-29,71,59,52,52,49,45,93,71,45,0.00,40.00,9,3,0,0.00
2013-5-30,73,58,43,45,35,-100,94,60,29,0.00,40.00,8,2,0,0.00
2013-5-31,92,59,44,47,43,41,90,61,20,0.00,40.00,8,2,0,0.00
2013-6-1,87,67,51,48,43,39,73,45,23,0.00,40.00,9,3,0,0.00
2013-6-2,89,66,53,54,47,43,73,52,27,0.00,40.00,4,2,0,0.00
2013-6-3,71,60,50,54,49,46,88,68,40,0.00,40.00,8,4,0,0.00
2013-6-4,70,56,47,51,48,45,93,75,48,0.00,40.00,6,2,0,0.00
2013-6-5,72,57,49,53,49,47,93,76,47,0.00,40.00,4,2,0,0.00
2013-6-6,77,61,48,55,50,46,93,70,44,0.00,40.00,6,3,0,0.00
2013-6-7,95,72,50,58,52,47,92,59,20,0.00,40.00,5,3,0,0.00
2013-6-8,96,74,58,60,55,50,78,55,25,0.00,40.00,5,3,0,0.00
2013-6-9,66,59,53,51,50,49,87,73,56,0.00,40.00,9,3,0,0.00
2013-6-10,61,56,53,51,50,49,89,79,65,0.00,40.00,9,4,0,0.00
2013-6-11,78,63,53,53,50,42,90,65,36,0.00,40.00,5,3,0,0.00
2013-6-12,75,59,43,42,14,-100,86,52,20,0.00,40.00,11,4,0,0.00
2013-6-13,76,61,49,44,37,-100,67,46,26,0.00,40.00,9,3,0,0.00
2013-6-14,83,59,47,47,40,-100,79,58,13,0.00,40.00,9,2,0,0.00
2013-6-15,84,57,48,45,43,41,79,63,24,0.00,40.00,4,2,0,0.00
2013-6-16,80,63,50,50,44,40,70,51,29,0.00,40.00,7,3,0,0.00
2013-6-17,74,61,49,52,48,43,81,62,44,0.00,40.00,4,2,0,0.00
2013-6-18,63,58,50,46,45,44,84,62,53,0.00,40.00,9,4,0,0.00
2013-6-19,72,59,47,47,44,40,85,59,36,0.00,40.00,6,3,0,0.00
2013-6-20,73,56,47,44,29,-100,82,63,25,0.00,40.00,5,2,0,0.00
2013-6-22,83,67,53,49,32,-100,62,44,19,0.00,40.00,9,2,0,0.00
2013-6-23,68,61,57,59,55,50,89,78,66,0.00,40.00,4,2,0,0.00
2013-6-24,59,56,54,53,52,51,93,87,81,0.00,40.00,7,3,0,0.00
2013-6-25,60,58,56,58,56,53,93,91,87,0.00,40.00,13,5,0,0.00
2013-6-26,76,66,59,62,59,57,93,79,53,0.00,40.00,24,4,0,0.00
2013-6-27,82,68,56,62,58,55,94,75,44,0.00,40.00,4,2,0,0.00
2013-6-28,93,65,58,64,59,49,94,85,22,0.00,40.00,5,2,0,0.00
2013-6-29,87,66,59,58,54,50,82,66,38,0.00,40.00,4,2,0,0.00
2013-6-30,85,66,59,56,54,51,80,66,36,0.00,40.00,3,1,0,0.00
2013-7-1,90,66,58,57,55,54,86,70,33,0.00,40.00,6,2,0,0.00
2013-7-2,88,72,65,63,57,55,70,60,43,0.00,40.00,8,4,0,0.00
2013-7-3,91,66,56,61,55,52,86,70,36,0.00,40.00,9,6,0,0.00
2013-7-4,75,70,67,58,57,56,67,62,55,0.00,40.00,8,4,0,0.00
2013-7-5,83,68,59,53,50,42,67,53,35,0.00,40.00,4,2,0,0.00
2013-7-6,76,64,53,54,51,48,82,64,45,0.00,40.00,7,3,0,0.00
2013-7-7,76,61,49,55,51,47,91,70,47,0.00,40.00,7,4,0,0.00
2013-7-8,77,56,47,55,49,46,94,80,47,0.00,40.00,6,4,0,0.00
2013-7-9,63,53,48,55,50,46,94,89,72,0.00,40.00,4,2,0,0.00
2013-7-11,75,68,58,53,51,50,76,56,41,0.00,40.00,6,4,0,0.00
2013-7-12,76,60,49,53,50,47,93,73,44,0.00,40.00,6,3,0,0.00
2013-7-13,79,64,49,54,30,-100,93,65,36,0.00,40.00,7,3,0,0.00
2013-7-14,77,60,48,54,38,-100,93,70,40,0.00,40.00,8,4,0,0.00
2013-7-15,72,55,47,51,48,45,93,78,47,0.00,40.00,8,3,0,0.00
2013-7-16,69,58,51,52,50,47,89,76,52,0.00,40.00,9,4,0,0.00
2013-7-17,76,64,55,55,52,51,86,68,45,0.00,40.00,6,2,0,0.00
2013-7-18,82,60,49,55,-6,-100,93,76,34,0.00,40.00,7,2,0,0.00
2013-7-19,71,58,52,54,43,-100,91,80,53,0.00,40.00,5,3,0,0.00
2013-7-20,79,57,52,55,46,-100,87,74,44,0.00,40.00,8,4,0,0.00
2013-7-21,80,62,50,55,51,48,92,70,41,0.00,40.00,9,6,0,0.00
2013-7-22,85,61,48,53,48,46,93,68,26,0.00,40.00,10,3,0,0.00
2013-7-23,78,63,57,57,52,51,80,70,47,0.00,40.00,6,4,0,0.00
2013-7-24,84,68,54,54,52,48,88,59,28,0.00,40.00,7,4,0,0.00
2013-7-25,81,62,57,54,52,49,82,69,39,0.00,40.00,6,3,0,0.00
2013-7-26,80,58,49,54,47,-100,91,76,40,0.00,40.00,9,5,0,0.00
2013-7-27,76,60,49,55,50,47,94,72,45,0.00,40.00,7,4,0,0.00
2013-7-28,74,56,47,53,49,46,94,78,48,0.00,40.00,8,4,0,0.00
2013-7-29,67,56,50,53,50,48,93,82,58,0.00,40.00,5,3,0,0.00
2013-7-30,72,58,52,53,51,49,93,78,51,0.00,40.00,6,3,0,0.00
2013-7-31,72,55,48,50,48,46,94,80,45,0.00,40.00,6,3,0,0.00
2013-8-1,79,58,47,51,48,45,91,69,38,0.00,40.00,6,3,0,0.00
2013-8-2,80,58,47,51,44,-100,90,71,31,0.00,40.00,6,2,0,0.00
2013-8-3,75,62,50,53,50,46,85,66,43,0.00,40.00,7,3,0,0.00
2013-8-4,74,57,48,52,49,46,93,77,44,0.00,40.00,6,4,0,0.00
2013-8-5,70,56,49,52,49,47,93,78,51,0.00,40.00,6,3,0,0.00
2013-8-6,72,56,48,52,49,47,93,79,48,0.00,40.00,5,2,0,0.00
2013-8-7,68,59,53,52,51,50,93,77,55,0.00,40.00,13,3,0,0.00
2013-8-8,71,59,53,54,51,49,88,75,53,0.00,40.00,6,3,0,0.00
2013-8-9,72,57,47,52,50,46,94,78,48,0.00,40.00,5,2,0,0.00
2013-8-10,74,60,53,54,52,50,90,77,49,0.00,40.00,4,2,0,0.00
2013-8-11,77,60,49,55,51,47,94,76,43,0.00,40.00,47,8,0,0.00
2013-8-12,77,59,49,53,49,46,89,72,41,0.00,40.00,5,2,0,0.00
2013-8-13,86,86,86,48,48,48,26,26,26,0.00,40.00,3,3,0,0.00
2013-8-14,77,55,52,58,18,-100,67,55,32,0.00,40.00,3,2,0,0.00
2013-8-15,83,62,65,61,33,-100,83,54,45,0.00,40.00,8,4,0,0.00
2013-8-16,81,59,57,60,49,-100,93,83,42,0.00,40.00,3,2,0,0.00
2013-8-17,74,60,55,56,47,-100,84,66,48,0.00,40.00,6,3,0,0.00
2013-8-18,89,63,58,55,54,52,82,73,28,0.00,40.00,6,2,0,0.00
2013-8-19,78,60,61,57,37,-100,77,61,49,0.00,40.00,5,3,0,0.00
2013-8-20,77,60,55,55,51,-100,89,76,46,0.00,40.00,6,3,0,0.00
2013-8-21,76,60,54,54,53,52,92,79,45,0.00,40.00,6,3,0,0.00
2013-8-22,69,58,52,53,52,50,93,79,53,0.00,40.00,6,2,0,0.00
2013-8-23,78,58,54,53,52,51,89,79,42,0.00,40.00,5,2,0,0.00
2013-8-24,76,62,51,54,48,-100,80,62,43,0.00,40.00,9,3,0,0.00
2013-8-25,77,64,58,58,56,54,89,73,50,0.00,40.00,7,3,0,0.00
2013-8-26,76,65,57,55,52,47,91,66,39,0.00,40.00,9,3,0,0.00
2013-8-27,74,56,49,50,46,45,85,72,43,0.00,40.00,3,2,0,0.00
2013-8-28,79,70,61,59,58,55,90,66,45,0.00,40.00,8,3,0,0.00
2013-8-29,81,65,57,59,58,55,93,78,43,0.00,40.00,7,3,0,0.00
2013-8-30,71,59,55,60,56,50,94,89,53,0.00,40.00,14,3,0,0.00
2013-8-31,81,64,52,55,48,-100,84,61,36,0.00,40.00,5,3,0,0.00
2013-9-1,78,63,51,58,53,49,94,73,39,0.00,40.00,8,3,0,0.00
2013-9-2,77,63,54,58,56,52,94,78,50,0.00,40.00,9,3,0,0.00
2013-9-3,76,62,49,55,52,48,94,72,43,0.00,40.00,5,2,0,0.00
2013-9-4,78,63,49,54,51,48,93,68,41,0.00,40.00,8,2,0,0.00
2013-9-5,79,65,53,52,51,47,89,63,38,0.00,40.00,9,3,0,0.00
2013-9-6,88,69,50,50,47,42,90,52,20,0.00,40.00,6,2,0,0.00
2013-9-7,90,62,53,48,36,-100,76,55,17,0.00,40.00,7,3,0,0.00
2013-9-8,66,58,53,42,-35,-100,63,55,41,0.00,40.00,4,2,0,0.00
2013-9-9,71,59,56,44,44,44,63,57,38,0.00,40.00,5,3,0,0.00
2013-9-10,72,61,54,55,52,49,83,72,53,0.00,40.00,7,3,0,0.00
2013-9-11,69,62,59,56,56,55,88,78,61,0.00,40.00,9,3,0,0.00
2013-9-12,76,63,58,57,56,55,92,78,51,0.00,40.00,8,2,0,0.00
2013-9-13,83,61,51,55,52,49,94,77,34,0.00,40.00,8,3,0,0.00
2013-9-14,76,59,50,55,49,-100,93,74,44,0.00,40.00,6,4,0,0.00
2013-9-15,76,61,49,56,52,47,93,75,43,0.00,40.00,9,4,0,0.00
2013-9-16,82,62,52,56,52,49,94,72,35,0.00,40.00,6,3,0,0.00
2013-9-17,72,63,54,51,49,46,87,62,42,0.00,40.00,16,6,0,0.00
2013-9-18,67,58,50,46,44,41,80,62,39,0.00,40.00,3,2,0,0.00
2013-9-19,85,59,45,47,28,-100,81,57,16,0.00,40.00,10,3,0,0.00
2013-9-20,70,58,44,58,32,-100,90,74,56,0.00,40.00,10,4,0,0.21
2013-9-21,66,58,52,57,50,-100,93,80,56,0.00,40.00,10,3,0,0.04
2013-9-22,70,57,47,54,49,45,94,77,48,0.00,40.00,44,5,0,0.00
2013-9-23,79,62,48,57,52,46,94,72,46,0.00,40.00,6,2,0,0.00
2013-9-24,72,61,55,52,48,45,81,62,40,0.00,40.00,12,5,0,0.00
2013-9-25,64,57,49,46,43,36,85,61,36,0.00,40.00,11,4,0,0.00
2013-9-26,71,56,41,41,12,-100,89,54,22,0.00,40.00,8,3,0,0.00
2013-9-27,76,58,42,41,28,-100,90,54,17,0.00,40.00,6,3,0,0.00
2013-9-28,79,56,43,54,42,-100,88,64,24,0.00,40.00,10,4,0,0.00
2013-9-29,62,59,56,59,56,52,93,90,85,0.00,40.00,16,4,0,0.08
2013-9-30,69,62,58,60,57,45,93,83,52,0.00,40.00,6,3,0,0.13
2013-10-11,64,52,38,45,42,36,94,73,47,0.00,40.00,5,3,0,0.00
2013-10-12,70,51,40,45,39,-100,94,71,34,0.00,40.00,7,3,0,0.00
2013-10-13,72,54,42,46,35,-100,94,65,31,0.00,40.00,10,3,0,0.00
2013-10-14,75,55,39,39,32,-100,88,53,21,0.00,40.00,7,3,0,0.00
2013-10-15,79,55,38,36,31,-100,79,48,16,0.00,40.00,6,4,0,0.00
2013-10-16,79,53,38,33,31,26,76,48,14,0.00,40.00,6,3,0,0.00
2013-10-17,78,55,41,35,33,31,70,47,20,0.00,40.00,5,3,0,0.00
2013-10-18,77,50,41,38,34,32,71,56,23,0.00,40.00,5,3,0,0.00
2013-10-19,81,54,43,38,29,-100,73,51,20,0.00,40.00,5,3,0,0.00
2013-10-20,66,50,42,43,38,36,78,64,41,0.00,40.00,6,3,0,0.00
2013-10-21,63,50,43,45,40,38,85,70,46,0.00,40.00,4,2,0,0.00
2013-10-22,73,54,41,46,42,38,87,64,35,0.00,40.00,6,3,0,0.00
2013-10-23,71,51,41,46,42,39,92,75,36,0.00,40.00,8,3,0,0.00
2013-10-24,64,48,41,47,43,39,94,84,51,0.00,40.00,6,3,0,0.00
2013-10-25,67,55,46,49,46,44,92,73,47,0.00,40.00,7,2,0,0.00
2013-10-26,77,55,42,46,37,-100,94,64,25,0.00,40.00,5,3,0,0.00
2013-10-27,51,44,37,37,19,-100,87,72,60,0.00,40.00,7,3,0,0.00
2013-10-28,62,53,44,43,37,-100,86,61,42,0.00,40.00,6,3,0,0.00
2013-10-29,62,47,37,45,41,35,94,81,49,0.00,40.00,7,2,0,0.00
2013-10-30,66,48,36,44,34,-100,95,76,39,0.00,40.00,16,4,0,0.00
2013-10-31,73,53,38,44,40,35,91,64,35,0.00,40.00,4,3,0,0.00
2013-11-1,75,56,42,45,42,39,91,64,32,0.00,40.00,5,3,0,0.00
2013-11-2,68,53,40,50,33,-100,90,63,27,0.00,40.00,12,4,0,0.00
2013-11-3,58,51,46,36,21,-100,64,47,32,0.00,40.00,8,4,0,0.00
2013-11-4,66,50,35,35,11,-100,85,53,21,0.00,40.00,10,3,0,0.00
2013-11-5,73,50,38,43,36,31,76,59,25,0.00,40.00,4,3,0,0.00
2013-11-6,73,55,45,44,41,38,87,62,33,0.00,40.00,5,3,0,0.00
2013-11-7,74,57,47,49,42,35,88,60,26,0.00,40.00,4,2,0,0.00
2013-11-8,70,53,43,48,43,39,94,73,37,0.00,40.00,7,3,0,0.00
2013-11-9,74,50,38,43,38,-100,93,68,29,0.00,40.00,7,3,0,0.00
2013-11-10,64,50,39,46,42,37,93,76,50,0.00,40.00,9,3,0,0.00
2013-11-11,70,52,41,46,42,39,94,73,34,0.00,40.00,15,4,0,0.00
2013-11-12,70,58,51,51,46,43,88,66,42,0.00,40.00,6,3,0,0.04
2013-11-13,76,56,43,50,47,42,94,74,40,0.00,40.00,5,2,0,0.00
2013-11-14,66,53,42,47,7,-100,92,64,35,0.00,40.00,7,3,0,0.00
2013-11-15,64,53,44,40,34,-100,76,53,30,0.00,40.00,7,3,0,0.00
2013-11-16,61,50,39,47,38,-100,91,67,51,0.00,40.00,12,4,0,0.00
2013-11-17,64,47,36,44,41,35,95,80,46,0.00,40.00,11,3,0,0.00
2013-11-18,52,48,42,45,43,40,94,82,71,0.00,40.00,7,3,0,0.31
2013-11-19,54,51,47,52,49,45,94,93,90,0.00,40.00,14,4,0,0.97
2013-11-20,55,52,48,53,50,47,94,92,88,0.00,40.00,5,2,0,0.00
2013-11-21,59,49,45,49,44,33,94,86,37,0.00,40.00,6,3,0,0.00
2013-11-22,72,67,48,28,-16,-100,46,12,7,0.00,40.00,12,6,0,0.00
2013-11-23,68,53,38,32,8,-100,79,36,11,0.00,40.00,7,3,0,0.00
2013-11-24,64,44,30,43,35,28,93,73,30,0.00,40.00,6,4,0,0.00
2013-11-25,63,46,32,42,38,31,95,76,39,0.00,40.00,12,4,0,0.00
2013-11-26,65,47,35,43,39,34,95,76,32,0.00,40.00,5,3,0,0.00
2013-11-27,65,50,37,42,38,35,92,67,34,0.00,40.00,19,5,0,0.00
2013-11-28,67,51,39,43,39,36,93,68,34,0.00,40.00,5,3,0,0.00
2013-11-29,68,49,37,44,40,35,93,73,40,0.00,40.00,5,3,0,0.00
2013-11-30,68,49,39,45,39,-100,93,73,37,0.00,40.00,6,3,0,0.00
2013-12-1,70,51,39,47,43,37,94,76,41,0.00,40.00,6,3,0,0.00
2013-12-2,60,53,42,51,47,40,94,80,59,0.00,40.00,11,4,0,0.00
2013-12-3,51,46,37,48,31,23,90,58,33,0.00,40.00,13,5,0,0.00
2013-12-4,50,37,27,30,28,25,95,73,37,0.00,40.00,10,3,0,0.00
2013-12-5,50,35,24,30,27,23,94,75,38,0.00,40.00,4,2,0,0.00
2013-12-6,45,35,23,43,31,21,95,87,56,0.00,40.00,9,3,0,3.16
2013-12-7,42,36,27,38,26,-100,91,71,44,0.00,40.00,13,4,0,0.00
2013-12-8,47,32,24,26,23,18,95,74,32,0.00,40.00,5,3,0,0.00
2013-12-9,52,34,22,28,19,-100,94,71,30,0.00,40.00,7,3,0,0.00
2013-12-10,55,37,23,38,30,22,94,77,37,0.00,40.00,5,3,0,0.00
2013-12-11,60,40,27,38,32,26,95,76,35,0.00,40.00,5,3,0,0.00
2013-12-12,58,41,29,42,33,27,95,77,37,0.00,40.00,5,3,0,0.00
2013-12-13,62,42,28,44,35,26,95,80,42,0.00,40.00,7,3,0,0.00
2013-12-14,65,44,32,42,35,-100,95,78,42,0.00,40.00,7,4,0,0.00
2013-12-15,65,44,32,40,36,31,95,76,37,0.00,40.00,6,3,0,0.00
2013-12-16,68,46,33,39,28,-100,95,72,23,0.00,40.00,6,3,0,0.00
2013-12-17,69,47,35,42,37,32,92,71,38,0.00,40.00,5,3,0,0.00
2013-12-18,61,46,34,41,36,32,92,70,45,0.00,40.00,11,4,0,0.00
2013-12-19,57,48,37,36,32,26,76,55,29,0.00,40.00,10,3,0,0.00
2013-12-20,64,44,29,32,30,26,92,60,24,0.00,40.00,6,3,0,0.00
2013-12-21,63,52,43,45,41,-100,90,68,42,0.00,40.00,8,4,0,0.00
2013-12-22,69,51,36,44,40,35,94,72,34,0.00,40.00,5,3,0,0.00
2013-12-23,69,49,36,45,40,34,94,74,39,0.00,40.00,5,3,0,0.01
2013-12-24,69,49,37,45,40,36,94,77,38,0.00,40.00,6,4,0,0.00
2013-12-25,68,47,33,43,37,31,94,72,30,0.00,40.00,5,3,0,0.00
2013-12-26,64,43,31,37,33,28,93,69,36,0.00,40.00,6,4,0,0.00
2013-12-27,57,44,35,41,34,30,92,70,47,0.00,40.00,5,3,0,0.00
2013-12-28,66,44,29,40,32,-100,93,68,35,0.00,40.00,5,3,0,0.00
2013-12-29,66,46,33,33,30,27,78,56,24,0.00,40.00,5,3,0,0.00
2013-12-30,67,45,32,38,27,-100,83,62,21,0.00,40.00,9,4,0,0.00
2013-12-31,58,44,36,43,37,31,92,77,46,0.00,40.00,6,3,0,0.00
2014-1-1,65,45,31,39,35,29,94,71,31,0.00,40.00,6,3,0,0.00
2014-1-2,66,48,36,40,36,32,89,66,34,0.00,40.00,6,3,0,0.00